Dewpoint
68 72 76 76 77 76 76 76 76 76 76 77 77 77 77 77 77 77 77 77 76 77 77 76 75 76 76 76 76 76 75 74 75 73 74 74 73 74 75 74 73 71 75
67 71 76 77 77 76 76 76 76 76 76 76 77 77 77 77 77 77 77 77 77 77 76 76 76 75 76 75 74 75 74 75 74 74 74 74 74 74 74 73 73 72 73
66 72 74 77 77 76 76 76 76 76 76 76 77 77 76 77 77 77 77 76 76 76 77 76 75 76 75 75 75 72 73 75 75 74 74 72 72 74 74 74 73 72 74
69 72 75 78 78 77 77 77 76 76 76 76 77 77 76 76 77 77 76 77 77 75 75 75 75 76 75 75 75 75 74 74 74 76 70 69 70 73 72 73 74 74 74
70 72 76 78 78 76 77 77 77 77 76 77 77 77 76 77 77 77 76 75 76 76 74 74 74 75 75 75 75 74 74 74 72 71 66 65 68 71 72 72 72 71 73
68 74 78 79 78 78 77 77 77 77 77 77 77 77 76 77 77 77 76 76 76 75 75 74 74 75 74 73 74 74 74 72 72 69 64 69 71 75 74 75 74 74 74
73 75 77 78 78 78 78 78 77 77 77 77 76 77 77 77 77 77 76 75 76 76 75 75 74 75 74 73 73 72 74 72 72 70 67 70 73 75 73 73 73 72 71
73 75 76 78 78 78 78 77 77 76 76 76 77 77 77 77 77 77 76 75 75 75 76 75 75 74 73 73 73 73 73 72 72 69 69 71 75 76 74 71 72 73 72
73 74 75 76 75 77 78 77 77 77 77 76 77 77 77 77 76 76 76 76 75 75 75 74 74 75 73 74 74 73 73 74 73 70 71 74 76 76 74 73 72 72 71
72 74 74 74 74 75 75 78 78 77 76 76 75 75 75 75 75 75 76 76 75 75 74 74 74 74 74 74 73 73 74 74 71 70 69 72 76 74 72 73 74 73 74
70 72 73 73 74 74 75 75 77 76 76 75 75 74 75 73 72 73 75 74 74 74 74 74 74 74 74 74 74 74 74 72 70 68 69 74 75 74 72 71 73 72 72
69 70 72 72 72 73 74 74 74 74 74 73 74 74 73 72 72 73 74 75 74 74 74 74 76 74 74 73 72 74 72 71 70 67 71 76 76 76 74 73 73 73 72
68 69 71 71 72 71 72 74 74 73 73 74 73 74 73 74 73 73 74 72 72 73 72 74 74 73 72 72 70 70 70 68 69 65 70 76 76 77 75 75 74 73 72
66 68 69 70 70 70 72 72 72 72 73 73 72 74 73 72 72 72 73 73 72 71 72 72 72 73 71 69 68 67 65 66 69 70 71 76 76 77 76 75 74 73 72
66 67 68 69 69 70 70 69 70 71 72 72 72 73 72 72 69 72 73 73 74 73 71 72 72 70 69 68 67 66 66 66 68 71 72 75 76 76 77 75 74 73 73
67 67 68 69 69 72 70 71 70 71 72 72 71 71 73 73 72 72 72 72 73 73 72 72 72 70 70 68 67 66 66 67 70 70 70 73 75 76 76 76 75 74 74
66 68 69 69 70 72 71 73 73 70 71 73 71 73 73 72 74 72 72 72 72 72 71 72 72 72 71 71 65 64 65 66 68 70 71 71 74 76 76 76 76 76 76
66 68 70 71 70 73 71 72 72 72 69 71 71 74 73 73 72 73 71 72 72 72 70 72 71 70 70 69 68 65 65 65 65 68 72 70 72 74 76 76 76 76 76
68 69 70 72 71 73 73 73 71 72 71 71 72 73 72 72 72 72 71 71 72 71 70 70 70 69 69 69 68 67 66 66 65 65 67 69 71 72 72 76 76 76 77
68 69 69 70 72 72 73 73 73 72 71 69 71 74 72 71 73 70 72 71 71 71 70 70 68 70 69 68 65 64 64 65 66 67 67 67 70 71 71 72 74 74 76
69 69 71 70 72 72 72 70 71 70 70 69 69 73 73 71 72 71 71 71 71 70 69 69 68 68 68 68 66 64 66 65 64 64 66 66 67 68 69 71 72 71 72
70 71 72 72 73 72 71 71 70 71 69 69 69 73 74 73 72 71 70 70 71 70 69 70 67 66 67 67 63 64 62 63 64 64 65 64 64 67 68 71 71 70 71
70 71 72 73 73 73 72 72 72 72 70 69 68 70 73 72 72 71 71 69 71 70 69 71 69 68 63 65 65 61 60 59 61 63 64 64 63 66 67 68 71 71 71
63 69 73 72 74 73 73 72 71 70 69 68 67 66 72 72 72 72 71 70 70 70 68 70 70 69 68 66 66 66 63 65 62 61 65 67 68 67 64 64 69 70 71
62 73 74 73 72 72 73 72 72 71 70 68 69 66 67 72 72 72 72 70 69 71 70 71 69 70 69 67 68 68 66 64 65 64 61 64 67 66 64 61 68 67 70
59 65 71 72 72 72 72 72 70 69 70 70 67 68 67 68 71 71 72 72 70 70 71 71 70 70 69 68 67 69 67 65 65 66 64 64 65 66 68 67 70 69 70
Lifted_Index
-0 -2 -3 -4 -5 -5 -4 -4 -4 -4 -4 -5 -5 -5 -5 -5 -5 -5 -5 -5 -5 -5 -5 -4 -4 -4 -4 -4 -3 -3 -3 -2 -2 -2 -2 -2 -2 -2 -3 -2 -2 -2 -3
-0 -2 -3 -4 -4 -5 -4 -4 -4 -4 -4 -5 -5 -5 -5 -5 -5 -5 -5 -5 -5 -5 -5 -4 -4 -4 -4 -3 -3 -3 -2 -2 -2 -2 -2 -2 -2 -3 -3 -2 -2 -2 -3
-1 -2 -4 -4 -5 -4 -4 -4 -4 -4 -4 -5 -5 -5 -5 -5 -5 -5 -5 -5 -5 -5 -5 -4 -4 -4 -4 -3 -3 -2 -2 -2 -3 -2 -2 -2 -2 -3 -3 -2 -3 -3 -3
-2 -3 -4 -5 -5 -5 -4 -4 -4 -4 -4 -5 -6 -5 -5 -5 -5 -5 -5 -5 -5 -4 -4 -4 -4 -4 -4 -4 -3 -3 -2 -2 -3 -2 -1 -1 -2 -2 -2 -2 -3 -3 -3
-3 -4 -5 -6 -5 -5 -4 -5 -5 -5 -5 -6 -6 -6 -5 -5 -6 -6 -5 -5 -5 -4 -4 -4 -4 -4 -4 -4 -3 -3 -3 -2 -2 -1 -0 -0 -1 -2 -2 -2 -2 -3 -3
-3 -4 -6 -6 -6 -5 -5 -5 -6 -6 -6 -6 -6 -6 -6 -6 -6 -6 -5 -5 -5 -4 -4 -4 -4 -4 -4 -4 -3 -3 -3 -2 -2 -1 0 -0 -2 -2 -2 -2 -3 -3 -3
-4 -5 -6 -6 -6 -6 -6 -6 -6 -6 -7 -6 -6 -6 -7 -7 -7 -6 -6 -5 -5 -5 -5 -4 -4 -4 -4 -3 -3 -3 -3 -2 -2 -1 -1 -1 -3 -3 -2 -2 -2 -2 -2
-5 -5 -6 -6 -6 -6 -6 -6 -7 -7 -7 -7 -7 -7 -7 -7 -7 -7 -6 -6 -5 -5 -5 -5 -4 -4 -4 -3 -3 -3 -3 -3 -3 -2 -2 -2 -3 -3 -2 -2 -2 -2 -2
-5 -5 -6 -6 -6 -6 -6 -7 -7 -7 -7 -7 -7 -7 -7 -7 -7 -7 -7 -6 -5 -5 -5 -5 -4 -4 -4 -3 -3 -3 -3 -3 -3 -2 -2 -3 -3 -3 -2 -2 -2 -2 -2
-5 -5 -6 -6 -5 -6 -6 -7 -7 -7 -7 -7 -7 -7 -7 -7 -7 -7 -6 -6 -5 -5 -5 -5 -4 -4 -4 -3 -3 -3 -4 -4 -3 -2 -2 -3 -3 -3 -2 -2 -2 -2 -2
-5 -5 -5 -5 -6 -6 -6 -7 -7 -7 -7 -7 -7 -7 -7 -7 -6 -6 -6 -5 -5 -5 -5 -5 -5 -4 -4 -3 -3 -4 -4 -3 -2 -2 -2 -3 -3 -3 -2 -1 -2 -2 -2
-5 -5 -5 -5 -5 -6 -6 -6 -7 -7 -7 -7 -7 -7 -7 -7 -6 -6 -6 -5 -5 -5 -5 -5 -5 -4 -4 -3 -3 -3 -3 -2 -2 -2 -2 -3 -4 -3 -3 -2 -2 -2 -1
-5 -5 -5 -5 -5 -5 -6 -6 -6 -6 -6 -7 -7 -7 -7 -7 -6 -6 -6 -5 -5 -5 -5 -5 -5 -4 -4 -3 -3 -3 -2 -2 -2 -2 -2 -4 -4 -4 -4 -3 -2 -2 -1
-5 -5 -5 -5 -5 -5 -5 -6 -6 -6 -6 -6 -6 -6 -6 -6 -5 -5 -6 -5 -5 -4 -4 -5 -4 -4 -3 -2 -2 -2 -2 -1 -1 -2 -2 -3 -4 -5 -4 -3 -3 -2 -2
-6 -6 -5 -5 -5 -5 -5 -5 -5 -5 -6 -6 -6 -6 -6 -5 -4 -5 -5 -5 -5 -4 -4 -4 -4 -4 -3 -2 -2 -1 -1 -1 -2 -2 -2 -3 -4 -4 -4 -4 -3 -2 -2
-6 -6 -6 -5 -5 -5 -5 -5 -5 -5 -5 -5 -5 -6 -6 -5 -5 -5 -5 -5 -5 -5 -4 -4 -4 -3 -3 -2 -2 -1 -1 -1 -2 -2 -3 -3 -3 -4 -4 -4 -3 -3 -3
-5 -6 -6 -6 -6 -6 -6 -6 -6 -6 -6 -6 -6 -6 -6 -6 -6 -6 -5 -5 -5 -5 -5 -4 -4 -4 -3 -3 -2 -1 -1 -1 -2 -3 -3 -3 -3 -4 -4 -4 -4 -4 -4
-5 -6 -7 -7 -7 -7 -7 -7 -6 -6 -6 -6 -6 -6 -6 -6 -6 -6 -5 -5 -5 -5 -5 -4 -4 -4 -4 -3 -2 -1 -0 -1 -1 -2 -3 -3 -3 -4 -4 -5 -5 -5 -5
-5 -6 -7 -8 -8 -8 -8 -7 -7 -7 -6 -6 -6 -6 -6 -6 -6 -6 -6 -5 -5 -5 -5 -4 -4 -4 -4 -3 -2 -1 -1 -1 -1 -1 -2 -3 -3 -4 -4 -4 -5 -5 -5
-5 -6 -6 -7 -8 -8 -8 -8 -8 -7 -7 -6 -6 -7 -6 -6 -6 -6 -6 -6 -5 -5 -5 -4 -4 -4 -4 -3 -3 -2 -1 -1 -1 -1 -2 -2 -3 -3 -4 -4 -4 -4 -5
-6 -6 -6 -7 -8 -8 -8 -8 -8 -8 -7 -6 -6 -7 -7 -6 -6 -6 -5 -5 -5 -5 -5 -4 -4 -4 -4 -4 -3 -2 -1 -1 -1 -1 -1 -1 -2 -3 -3 -4 -4 -4 -4
-6 -6 -6 -7 -7 -8 -8 -8 -7 -8 -7 -7 -6 -7 -7 -7 -6 -5 -5 -5 -5 -5 -5 -4 -4 -3 -3 -3 -3 -2 -2 -1 -1 -1 -1 -1 -1 -2 -3 -4 -4 -4 -4
-5 -6 -6 -7 -7 -7 -7 -7 -7 -7 -7 -7 -7 -7 -7 -7 -6 -6 -5 -5 -5 -5 -5 -5 -4 -4 -3 -2 -2 -2 -1 -1 -2 -2 -2 -2 -1 -1 -2 -3 -4 -4 -4
-3 -5 -6 -6 -6 -6 -6 -6 -6 -6 -7 -7 -6 -6 -7 -7 -7 -6 -6 -5 -5 -5 -5 -5 -4 -4 -3 -3 -2 -2 -1 -1 -1 -2 -2 -2 -2 -2 -2 -2 -3 -4 -4
-2 -4 -6 -6 -6 -6 -6 -5 -5 -5 -6 -6 -6 -6 -6 -7 -7 -7 -6 -5 -5 -5 -5 -5 -4 -4 -3 -3 -3 -2 -2 -1 -1 -2 -2 -2 -2 -2 -2 -2 -2 -3 -4
-1 -3 -5 -6 -6 -6 -5 -5 -5 -5 -5 -6 -6 -6 -6 -7 -7 -7 -7 -6 -5 -5 -5 -5 -4 -4 -3 -3 -3 -3 -2 -2 -2 -2 -2 -2 -2 -2 -2 -2 -2 -3 -4